| time (UTC) | temp F | wind direction | speed MPH | gust MPH | rain 1hr in | rain 24hr in | rain mn in | humidity % | barometer mb |
| 20260510174530 | 51 | 355 | 6.0 | 19.0 | 0.00 | 0.00 | 0.00 | 73 | 1016.2 |
| 20260510173030 | 52 | 346 | 6.0 | 18.0 | 0.00 | 0.00 | 0.00 | 73 | 1016.4 |
| 20260510171531 | 52 | 334 | 6.0 | 15.0 | 0.00 | 0.00 | 0.00 | 73 | 1016.4 |
| 20260510170030 | 52 | 280 | 6.0 | 16.0 | 0.00 | 0.00 | 0.00 | 73 | 1016.5 |
| 20260510164530 | 52 | 11 | 5.0 | 15.0 | 0.00 | 0.00 | 0.00 | 73 | 1016.5 |
| 20260510163030 | 52 | 277 | 7.0 | 17.0 | 0.00 | 0.00 | 0.00 | 73 | 1016.6 |
| 20260510161535 | 53 | 329 | 6.0 | 14.0 | 0.00 | 0.00 | 0.00 | 72 | 1016.9 |
| 20260510160035 | 53 | 334 | 6.0 | 17.0 | 0.00 | 0.00 | 0.00 | 73 | 1017.2 |
| 20260510154530 | 53 | 315 | 6.0 | 15.0 | 0.00 | 0.00 | 0.00 | 73 | 1017.3 |
| 20260510153034 | 54 | 30 | 5.0 | 16.0 | 0.00 | 0.00 | 0.00 | 72 | 1017.4 |
| 20260510151530 | 54 | 5 | 5.0 | 14.0 | 0.00 | 0.00 | 0.00 | 72 | 1017.6 |
| 20260510150041 | 54 | 298 | 4.0 | 14.0 | 0.00 | 0.00 | 0.00 | 72 | 1017.7 |
| 20260510144535 | 54 | 315 | 4.0 | 13.0 | 0.00 | 0.00 | 0.00 | 72 | 1018.0 |
| 20260510143028 | 55 | 306 | 5.0 | 14.0 | 0.00 | 0.00 | 0.00 | 69 | 1018.0 |
| 20260510141533 | 54 | 325 | 3.0 | 15.0 | 0.00 | 0.00 | 0.00 | 69 | 1018.1 |
| 20260510140029 | 54 | 360 | 4.0 | 14.0 | 0.00 | 0.00 | 0.00 | 69 | 1018.0 |
| 20260510134529 | 54 | 207 | 4.0 | 13.0 | 0.00 | 0.00 | 0.00 | 70 | 1018.2 |
| 20260510133028 | 54 | 108 | 5.0 | 14.0 | 0.00 | 0.00 | 0.00 | 70 | 1018.2 |
| 20260510131530 | 55 | 305 | 3.0 | 12.0 | 0.00 | 0.00 | 0.00 | 71 | 1018.3 |
| 20260510130030 | 55 | 149 | 4.0 | 13.0 | 0.00 | 0.00 | 0.00 | 71 | 1018.5 |
| 20260510124531 | 55 | 94 | 4.0 | 14.0 | 0.00 | 0.00 | 0.00 | 70 | 1018.6 |
| 20260510123034 | 55 | 284 | 4.0 | 14.0 | 0.00 | 0.00 | 0.00 | 69 | 1018.5 |
| 20260510121528 | 55 | 84 | 3.0 | 12.0 | 0.00 | 0.00 | 0.00 | 72 | 1018.6 |
| 20260510120031 | 54 | 326 | 4.0 | 12.0 | 0.00 | 0.00 | 0.00 | 72 | 1018.7 |
| 20260510114536 | 53 | 341 | 3.0 | 12.0 | 0.00 | 0.00 | 0.00 | 72 | 1018.8 |
| 20260510113031 | 54 | 287 | 3.0 | 15.0 | 0.00 | 0.00 | 0.00 | 72 | 1019.1 |
| 20260510111528 | 53 | 302 | 4.0 | 13.0 | 0.00 | 0.00 | 0.00 | 72 | 1019.2 |
| 20260510110031 | 53 | 281 | 4.0 | 12.0 | 0.00 | 0.00 | 0.00 | 74 | 1019.3 |
| 20260510104534 | 52 | 250 | 4.0 | 15.0 | 0.00 | 0.00 | 0.00 | 75 | 1019.4 |
| 20260510103028 | 51 | 210 | 4.0 | 14.0 | 0.00 | 0.00 | 0.00 | 75 | 1019.5 |
| 20260510101528 | 51 | 296 | 4.0 | 13.0 | 0.00 | 0.00 | 0.00 | 76 | 1019.7 |
| 20260510100029 | 51 | 292 | 3.0 | 14.0 | 0.00 | 0.00 | 0.00 | 77 | 1019.6 |
| 20260510094538 | 51 | 269 | 4.0 | 14.0 | 0.00 | 0.00 | 0.00 | 78 | 1019.6 |
| 20260510093028 | 50 | 325 | 6.0 | 16.0 | 0.00 | 0.00 | 0.00 | 78 | 1019.7 |
| 20260510091530 | 50 | 103 | 4.0 | 13.0 | 0.00 | 0.00 | 0.00 | 79 | 1019.7 |
| 20260510090028 | 50 | 94 | 6.0 | 16.0 | 0.00 | 0.00 | 0.00 | 79 | 1019.6 |
| 20260510084527 | 50 | 298 | 7.0 | 15.0 | 0.00 | 0.00 | 0.00 | 80 | 1019.7 |
| 20260510083028 | 50 | 337 | 6.0 | 14.0 | 0.00 | 0.00 | 0.00 | 80 | 1019.7 |
| 20260510081538 | 50 | 263 | 6.0 | 15.0 | 0.00 | 0.00 | 0.00 | 80 | 1019.6 |
| 20260510080032 | 50 | 306 | 5.0 | 15.0 | 0.00 | 0.00 | 0.00 | 80 | 1019.5 |
| 20260510074529 | 50 | 309 | 4.0 | 13.0 | 0.00 | 0.00 | 0.00 | 80 | 1019.4 |
| 20260510073034 | 50 | 277 | 6.0 | 15.0 | 0.00 | 0.00 | 0.00 | 80 | 1019.6 |
| 20260510071531 | 50 | 312 | 6.0 | 16.0 | 0.00 | 0.00 | 0.00 | 80 | 1019.5 |
| 20260510070035 | 50 | 276 | 5.0 | 14.0 | 0.00 | 0.00 | 0.00 | 81 | 1019.4 |
| 20260510064530 | 50 | 340 | 5.0 | 12.0 | 0.00 | 0.00 | 0.00 | 82 | 1019.4 |
| 20260510063029 | 50 | 352 | 5.0 | 13.0 | 0.00 | 0.00 | 0.00 | 82 | 1019.1 |
| 20260510061533 | 50 | 16 | 7.0 | 13.0 | 0.00 | 0.00 | 0.00 | 82 | 1019.1 |
| 20260510060031 | 50 | 360 | 6.0 | 15.0 | 0.00 | 0.00 | 0.00 | 82 | 1018.9 |
| 20260510054535 | 50 | 355 | 4.0 | 13.0 | 0.00 | 0.00 | 0.00 | 83 | 1018.9 |
| 20260510053030 | 50 | 344 | 5.0 | 12.0 | 0.00 | 0.00 | 0.00 | 84 | 1018.9 |
| 20260510051534 | 50 | 266 | 4.0 | 9.0 | 0.00 | 0.00 | 0.00 | 84 | 1018.8 |
| 20260510050031 | 50 | 271 | 3.0 | 13.0 | 0.00 | 0.00 | 0.00 | 84 | 1018.9 |
| 20260510044536 | 50 | 291 | 2.0 | 9.0 | 0.00 | 0.00 | 0.00 | 84 | 1018.9 |
| 20260510043030 | 50 | 303 | 4.0 | 14.0 | 0.00 | 0.00 | 0.00 | 84 | 1019.0 |
| 20260510041529 | 50 | 275 | 5.0 | 12.0 | 0.00 | 0.00 | 0.00 | 84 | 1019.0 |
| 20260510040037 | 50 | 288 | 6.0 | 16.0 | 0.00 | 0.00 | 0.00 | 84 | 1019.2 |
| 20260510034529 | 50 | 319 | 6.0 | 15.0 | 0.00 | 0.00 | 0.00 | 84 | 1019.2 |
| 20260510033030 | 50 | 276 | 6.0 | 15.0 | 0.00 | 0.00 | 0.00 | 84 | 1019.3 |
| 20260510031546 | 51 | 329 | 6.0 | 15.0 | 0.00 | 0.00 | 0.00 | 84 | 1019.4 |
| 20260510030034 | 51 | 298 | 4.0 | 15.0 | 0.00 | 0.00 | 0.00 | 84 | 1019.3 |
| 20260510024530 | 51 | 298 | 5.0 | 13.0 | 0.00 | 0.00 | 0.00 | 84 | 1019.4 |
| 20260510023028 | 51 | 346 | 4.0 | 16.0 | 0.00 | 0.00 | 0.00 | 85 | 1019.3 |
| 20260510021532 | 51 | 306 | 4.0 | 15.0 | 0.00 | 0.00 | 0.00 | 86 | 1019.3 |
| 20260510020028 | 51 | 234 | 4.0 | 12.0 | 0.00 | 0.00 | 0.00 | 86 | 1019.4 |
| 20260510014528 | 52 | 23 | 4.0 | 12.0 | 0.00 | 0.00 | 0.00 | 86 | 1019.3 |
| 20260510013030 | 52 | 338 | 4.0 | 12.0 | 0.00 | 0.00 | 0.00 | 87 | 1019.4 |
| 20260510011530 | 52 | 319 | 3.0 | 11.0 | 0.00 | 0.00 | 0.00 | 87 | 1019.4 |
| 20260510010030 | 52 | 306 | 2.0 | 11.0 | 0.00 | 0.00 | 0.00 | 87 | 1019.6 |
| 20260510004528 | 52 | 33 | 5.0 | 12.0 | 0.00 | 0.00 | 0.00 | 87 | 1019.6 |
| 20260510003031 | 52 | 284 | 3.0 | 13.0 | 0.00 | 0.00 | 0.00 | 87 | 1019.4 |
| 20260510001530 | 52 | 49 | 6.0 | 14.0 | 0.00 | 0.00 | 0.00 | 88 | 1019.4 |
| 20260510000030 | 52 | 284 | 7.0 | 14.0 | 0.00 | 0.00 | 0.00 | 88 | 1019.4 |
| 20260509234533 | 52 | 302 | 6.0 | 16.0 | 0.00 | 0.00 | 0.00 | 88 | 1019.3 |
| 20260509233030 | 51 | 226 | 6.0 | 20.0 | 0.00 | 0.00 | 0.00 | 88 | 1019.3 |
| 20260509231528 | 51 | 318 | 6.0 | 14.0 | 0.00 | 0.00 | 0.00 | 88 | 1019.4 |
| 20260509230030 | 51 | 319 | 6.0 | 12.0 | 0.00 | 0.00 | 0.00 | 88 | 1019.5 |
| 20260509224529 | 51 | 322 | 4.0 | 15.0 | 0.00 | 0.00 | 0.00 | 88 | 1019.5 |
| 20260509223028 | 51 | 9 | 5.0 | 15.0 | 0.00 | 0.00 | 0.00 | 88 | 1019.5 |
| 20260509221533 | 51 | 16 | 6.0 | 15.0 | 0.00 | 0.00 | 0.00 | 88 | 1019.4 |
| 20260509220027 | 51 | 347 | 5.0 | 14.0 | 0.00 | 0.00 | 0.00 | 87 | 1019.6 |
| 20260509214527 | 51 | 327 | 4.0 | 15.0 | 0.00 | 0.00 | 0.00 | 87 | 1019.6 |
| 20260509213029 | 51 | 10 | 5.0 | 14.0 | 0.00 | 0.00 | 0.00 | 86 | 1019.7 |
| 20260509211530 | 51 | 41 | 5.0 | 16.0 | 0.00 | 0.00 | 0.00 | 86 | 1019.5 |
| 20260509210038 | 51 | 11 | 6.0 | 16.0 | 0.00 | 0.00 | 0.00 | 86 | 1019.5 |
| 20260509204530 | 51 | 16 | 5.0 | 14.0 | 0.00 | 0.00 | 0.00 | 86 | 1019.5 |
| 20260509203034 | 51 | 265 | 6.0 | 16.0 | 0.00 | 0.00 | 0.00 | 86 | 1019.4 |
| 20260509201532 | 51 | 10 | 5.0 | 14.0 | 0.00 | 0.00 | 0.00 | 86 | 1019.4 |
| 20260509200031 | 51 | 19 | 7.0 | 16.0 | 0.00 | 0.00 | 0.00 | 86 | 1019.3 |
| 20260509194530 | 51 | 317 | 6.0 | 16.0 | 0.00 | 0.00 | 0.00 | 86 | 1019.3 |
| 20260509193028 | 52 | 22 | 5.0 | 18.0 | 0.00 | 0.00 | 0.00 | 85 | 1019.2 |
| 20260509191528 | 52 | 346 | 5.0 | 17.0 | 0.00 | 0.00 | 0.00 | 85 | 1019.2 |
| 20260509190039 | 51 | 337 | 4.0 | 17.0 | 0.00 | 0.00 | 0.00 | 85 | 1019.2 |
| 20260509184535 | 51 | 19 | 5.0 | 20.0 | 0.00 | 0.00 | 0.00 | 85 | 1019.2 |
| 20260509183028 | 52 | 5 | 5.0 | 14.0 | 0.00 | 0.00 | 0.00 | 85 | 1019.1 |
| 20260509181528 | 52 | 268 | 6.0 | 19.0 | 0.00 | 0.00 | 0.00 | 85 | 1019.1 |
| 20260509180027 | 52 | 40 | 6.0 | 15.0 | 0.00 | 0.00 | 0.00 | 85 | 1018.9 |